Tracking 20093 objects as of 16-Dec-2019
HD Live streaming from Space Station
objects crossing your sky now

SL-12 R/B(2)

Track SL-12 R/B(2) now!


NORAD ID: 28240
Int'l Code: 2004-015D
Perigee: 35,586.0 km
Apogee: 35,759.7 km
Inclination: 11.3 °
Period: 1,429.9 minutes
Semi major axis: 42043 km
RCS: 1.2715 m2 (large)
Launch date: April 26, 2004
Source: Commonwealth of Independent States (former USSR) (CIS)
Launch site: TYURATAM MISSILE AND SPACE COMPLEX (TTMTR)

Note: This is a ROCKET BODY
aabbcc
Your satellite tracking list
Your tracking list is empty




NASA's NSSDC Master Catalog

Two Line Element Set (TLE):
1 28240U 04015D   19349.45536652 -.00000032 +00000-0 +00000-0 0  9994
2 28240 011.2608 031.0835 0020664 279.8561 097.4977 01.00704582057486
Source of the keplerian elements: AFSPC